Simultaneous Nadir Overpasses (SNOs) Predictions

Prediction of SNOs between GOES-15 and METOP-C Satellite Orbit:

Table of predicted SNOs for the next 14.0 days since TLE Epoch: 2/1/2025
Index Date Time (GOES-15) GOES-15 Lat,Lon METOP-C Lat,Lon Distance(km) Time Diff (sec)
1 02/01/2025 05:19:37 0.01, 61.72 -0.34, 63.16 163.92 80
2 02/02/2025 17:38:38 -0.01, 61.74 -0.69, 58.56 361.68 80
3 02/03/2025 17:15:17 -0.01, 61.76 0.37, 63.57 204.94 80
4 02/05/2025 05:34:08 0.01, 61.81 0.64, 59.01 319.86 80
5 02/06/2025 05:16:09 0.01, 61.83 -0.48, 64.00 247.29 80
6 02/07/2025 17:35:09 -0.00, 61.85 -0.54, 59.40 278.51 80
7 02/08/2025 17:11:49 -0.01, 61.88 0.53, 64.41 287.47 80
8 02/10/2025 05:30:40 0.01, 61.94 0.46, 59.84 238.96 80
9 02/11/2025 05:12:40 0.01, 61.96 -0.62, 64.84 328.09 80
10 02/12/2025 17:31:40 -0.01, 61.97 -0.39, 60.25 196.70 80
11 02/13/2025 17:08:19 -0.02, 62.00 0.69, 65.25 369.52 80
